Simultaneous Nadir Overpasses (SNOs) Predictions

Prediction of SNOs between GOES-16 and METOP-C Satellite Orbit:

Table of predicted SNOs for the next 14.0 days since TLE Epoch: 6/29/2019
Index Date Time (GOES-16) GOES-16 Lat,Lon METOP-C Lat,Lon Distance(km) Time Diff (sec)
1 06/30/2019 02:27:06 -0.01, -75.19 0.13, -74.42 87.09 80
2 07/01/2019 14:48:39 0.01, -75.20 0.86, -79.00 432.18 80
3 07/02/2019 14:25:21 0.01, -75.21 -0.29, -74.01 136.93 80
4 07/04/2019 02:47:00 0.00, -75.20 -0.77, -78.60 387.21 80
5 07/05/2019 02:23:42 0.01, -75.20 0.38, -73.61 181.98 80
6 07/06/2019 14:45:15 -0.02, -75.22 0.61, -78.18 336.75 80
7 07/07/2019 14:21:56 -0.03, -75.23 -0.48, -73.18 232.99 80
8 07/09/2019 02:43:36 0.03, -75.24 -0.51, -77.78 289.73 80
9 07/10/2019 02:20:16 0.03, -75.25 0.58, -72.78 280.57 80
10 07/11/2019 14:41:50 -0.03, -75.27 0.42, -77.35 236.59 80
11 07/12/2019 14:18:30 -0.03, -75.29 -0.68, -72.36 334.07 80




NCC Satellite Simultaneous Nadir Overpasses (SNOs) Prediction Service
